Airport METAR Information

LTBA 181520Z 19008KT CAVOK 10/05 Q1018 NOSIG

VATSIM Livefeed

Card image cap

ATC Bookings

No position booked

Card image cap

Active ATC

No controllers online

Blog

Read our latest news and get to know us better.